Location: La Fredeussais
(48.1780°N, 1.3980°W)
Time: 18:35:35
(UTC+00:00)

Cosmos 2218 Rocket - Pass Details

Date: 09 May 2021
Orbit: 957 x 1005 km, 82.9° (Epoch: 21 June)

Event Time Altitude Azimuth Distance (km) Brightness Sun altitude
Rises 22:58:20 0° 352° (N) 3,682 8.5 -22.7°
Reaches altitude 10° 23:00:51 10° 354° (N) 2,738 7.4 -22.8°
Maximum altitude 23:07:08 73° 79° (E) 1,034 4.0 -23.1°
Enters shadow 23:09:04 46° 150° (SSE) 1,297 4.2 -23.1°
